DAL1556 KJAX-KIAD

Flight info

Callsign DAL1556
Flight time N/A
Altitude 37000
Route CROSB2 WISPR JROSS LCAPE Q87 ALWZZ OGRAE BZNGA DORRN CAVLR6
Aircraft A321/M-SDE3FGHIRWY/LB1

Departure

Time 2026-05-05 19:02
Airport Jacksonville International Airport (KJAX)

Arrival

Time N/A
Airport Washington Dulles International Airport (KIAD)
Time Latitude Longitude Altitude Speed Heading
2026-05-05 18:39 30.49252 -81.68495 35 ft 0 kts 268°
2026-05-05 18:51 30.49253 -81.68483 35 ft 3 kts 268°
2026-05-05 18:51 30.49253 -81.68461 35 ft 3 kts 268°
2026-05-05 18:51 30.49254 -81.68440 35 ft 3 kts 268°
2026-05-05 18:52 30.49251 -81.68418 34 ft 3 kts 320°
2026-05-05 18:52 30.49244 -81.68413 32 ft 0 kts 334°
2026-05-05 18:54 30.49263 -81.68420 35 ft 8 kts 345°
2026-05-05 18:55 30.49323 -81.68429 35 ft 8 kts 356°
2026-05-05 18:55 30.49379 -81.68434 35 ft 8 kts 356°
2026-05-05 18:55 30.49429 -81.68440 35 ft 7 kts 352°
2026-05-05 18:55 30.49473 -81.68477 35 ft 11 kts 294°
2026-05-05 18:56 30.49473 -81.68561 35 ft 10 kts 265°
2026-05-05 18:56 30.49467 -81.68636 35 ft 9 kts 261°
2026-05-05 18:56 30.49435 -81.68698 35 ft 11 kts 232°
2026-05-05 18:56 30.49394 -81.68765 35 ft 10 kts 246°
2026-05-05 18:57 30.49380 -81.68870 35 ft 15 kts 265°
2026-05-05 18:57 30.49391 -81.68977 34 ft 13 kts 311°
2026-05-05 18:57 30.49465 -81.69028 35 ft 12 kts 330°
2026-05-05 18:57 30.49534 -81.69075 35 ft 11 kts 329°
2026-05-05 18:58 30.49599 -81.69119 35 ft 10 kts 329°
2026-05-05 18:58 30.49657 -81.69159 35 ft 9 kts 325°
2026-05-05 18:58 30.49677 -81.69242 36 ft 13 kts 257°
2026-05-05 18:58 30.49648 -81.69338 36 ft 12 kts 250°
2026-05-05 18:59 30.49618 -81.69439 36 ft 16 kts 250°
2026-05-05 18:59 30.49582 -81.69555 36 ft 15 kts 250°
2026-05-05 18:59 30.49548 -81.69663 35 ft 14 kts 250°
2026-05-05 18:59 30.49517 -81.69766 35 ft 13 kts 250°
2026-05-05 19:00 30.49487 -81.69863 35 ft 12 kts 250°
2026-05-05 19:00 30.49512 -81.69937 35 ft 10 kts 334°
2026-05-05 19:00 30.49578 -81.69964 35 ft 10 kts 341°
2026-05-05 19:00 30.49633 -81.69954 33 ft 8 kts 48°
2026-05-05 19:01 30.49646 -81.69924 34 ft 0 kts 69°
2026-05-05 19:01 30.49646 -81.69923 34 ft 1 kts 69°
2026-05-05 19:01 30.49700 -81.69745 36 ft 58 kts 71°
2026-05-05 19:01 30.49905 -81.69070 38 ft 117 kts 71°
2026-05-05 19:02 30.50228 -81.68009 46 ft 159 kts 74°
2026-05-05 19:02 30.50612 -81.66826 562 ft 159 kts 70°
2026-05-05 19:02 30.50877 -81.66018 980 ft 160 kts 72°
2026-05-05 19:02 30.51362 -81.64404 1762 ft 161 kts 74°
2026-05-05 19:03 30.51747 -81.63092 2103 ft 182 kts 73°
2026-05-05 19:03 30.52176 -81.61623 2329 ft 204 kts 72°
2026-05-05 19:03 30.52496 -81.60529 2497 ft 220 kts 72°
2026-05-05 19:03 30.53022 -81.58752 2800 ft 245 kts 72°
2026-05-05 19:04 30.53791 -81.56931 3365 ft 260 kts 51°
2026-05-05 19:04 30.55238 -81.55644 4079 ft 269 kts 21°
2026-05-05 19:04 30.57049 -81.55133 4809 ft 274 kts
2026-05-05 19:04 30.58942 -81.54741 5599 ft 278 kts
2026-05-05 19:05 30.60858 -81.54353 6441 ft 281 kts
2026-05-05 19:05 30.62796 -81.53958 7231 ft 284 kts
2026-05-05 19:05 30.64753 -81.53554 8010 ft 287 kts
2026-05-05 19:05 30.66733 -81.53141 8802 ft 290 kts
2026-05-05 19:06 30.68731 -81.52722 9592 ft 293 kts
2026-05-05 19:06 30.70755 -81.52296 10275 ft 300 kts
2026-05-05 19:06 30.72890 -81.51850 10477 ft 323 kts
2026-05-05 19:06 30.75177 -81.51374 10630 ft 346 kts
2026-05-05 19:07 30.77610 -81.50864 10875 ft 363 kts
2026-05-05 19:07 30.80122 -81.50330 11458 ft 368 kts
2026-05-05 19:07 30.82650 -81.49790 12126 ft 371 kts
2026-05-05 19:07 30.85203 -81.49244 12807 ft 374 kts
2026-05-05 19:08 30.87773 -81.48692 13478 ft 377 kts
2026-05-05 19:08 30.90357 -81.48141 14111 ft 379 kts
2026-05-05 19:08 30.92969 -81.47589 14681 ft 382 kts
2026-05-05 19:08 30.95591 -81.47030 14934 ft 383 kts
2026-05-05 19:09 30.98213 -81.46450 15029 ft 385 kts
2026-05-05 19:09 31.00858 -81.45853 15483 ft 388 kts
2026-05-05 19:09 31.03481 -81.45255 16103 ft 389 kts
2026-05-05 19:09 31.06144 -81.44647 16685 ft 392 kts
2026-05-05 19:10 31.08823 -81.44033 17258 ft 394 kts
2026-05-05 19:10 31.11523 -81.43419 17822 ft 396 kts
2026-05-05 19:10 31.14240 -81.42806 18370 ft 399 kts
2026-05-05 19:10 31.16973 -81.42192 18845 ft 401 kts
2026-05-05 19:11 31.19719 -81.41575 19312 ft 403 kts
2026-05-05 19:11 31.22482 -81.40949 19783 ft 406 kts
2026-05-05 19:11 31.25262 -81.40318 20256 ft 408 kts
2026-05-05 19:11 31.28056 -81.39685 20716 ft 410 kts
2026-05-05 19:12 31.30860 -81.39052 21170 ft 412 kts
2026-05-05 19:12 31.33686 -81.38414 21619 ft 414 kts
2026-05-05 19:12 31.36520 -81.37774 22064 ft 416 kts
2026-05-05 19:12 31.39372 -81.37129 22505 ft 419 kts
2026-05-05 19:13 31.42242 -81.36479 22944 ft 421 kts
2026-05-05 19:13 31.45123 -81.35825 23371 ft 423 kts
2026-05-05 19:13 31.48022 -81.35165 23772 ft 425 kts
2026-05-05 19:13 31.50932 -81.34503 24135 ft 427 kts
2026-05-05 19:14 31.53862 -81.33838 24498 ft 429 kts
2026-05-05 19:14 31.56793 -81.33175 24858 ft 431 kts
2026-05-05 19:14 31.59745 -81.32504 25218 ft 432 kts
2026-05-05 19:14 31.62707 -81.31823 25577 ft 434 kts
2026-05-05 19:15 31.65681 -81.31140 25921 ft 436 kts
2026-05-05 19:15 31.68665 -81.30454 26260 ft 438 kts
2026-05-05 19:15 31.71660 -81.29769 26597 ft 439 kts
2026-05-05 19:15 31.74667 -81.29085 26923 ft 441 kts
2026-05-05 19:16 31.77686 -81.28399 27261 ft 443 kts
2026-05-05 19:16 31.80709 -81.27709 27587 ft 444 kts
2026-05-05 19:16 31.83751 -81.27013 27907 ft 446 kts
2026-05-05 19:16 31.86803 -81.26314 28229 ft 448 kts
2026-05-05 19:17 31.89868 -81.25612 28543 ft 449 kts
2026-05-05 19:17 31.92942 -81.24905 28848 ft 451 kts
2026-05-05 19:17 31.95978 -81.24203 29254 ft 449 kts
2026-05-05 19:17 31.99083 -81.23483 29688 ft 448 kts
2026-05-05 19:18 32.02064 -81.22531 30097 ft 455 kts 12°
2026-05-05 19:18 32.04956 -81.20944 30481 ft 465 kts 22°
2026-05-05 19:18 32.07651 -81.18761 30871 ft 471 kts 28°
2026-05-05 19:18 32.10271 -81.16454 31245 ft 469 kts 28°
2026-05-05 19:19 32.12880 -81.14151 31640 ft 467 kts 27°
2026-05-05 19:19 32.15486 -81.11852 32018 ft 465 kts 27°
2026-05-05 19:19 32.18075 -81.09573 32417 ft 463 kts 26°
2026-05-05 19:19 32.20650 -81.07314 32801 ft 461 kts 26°
2026-05-05 19:20 32.23222 -81.05062 33193 ft 459 kts 26°
2026-05-05 19:20 32.25784 -81.02820 33586 ft 457 kts 25°
2026-05-05 19:20 32.28333 -81.00585 33969 ft 455 kts 25°
2026-05-05 19:20 32.30870 -80.98357 34363 ft 453 kts 25°
2026-05-05 19:21 32.33388 -80.96137 34693 ft 452 kts 25°
2026-05-05 19:21 32.35902 -80.93915 34999 ft 451 kts 25°
2026-05-05 19:21 32.38411 -80.91698 35293 ft 450 kts 25°
2026-05-05 19:21 32.40917 -80.89488 35621 ft 448 kts 25°
2026-05-05 19:22 32.43413 -80.87285 35946 ft 447 kts 25°
2026-05-05 19:22 32.45900 -80.85089 36233 ft 446 kts 25°
2026-05-05 19:22 32.48383 -80.82895 36505 ft 445 kts 25°
2026-05-05 19:22 32.50863 -80.80702 36756 ft 444 kts 25°
2026-05-05 19:23 32.53337 -80.78513 37007 ft 444 kts 25°
2026-05-05 19:23 32.55815 -80.76318 37152 ft 445 kts 25°
2026-05-05 19:23 32.60760 -80.71931 37134 ft 444 kts 25°
2026-05-05 19:24 32.65700 -80.67538 37127 ft 443 kts 25°
2026-05-05 19:24 32.70642 -80.63186 37118 ft 438 kts 21°
2026-05-05 19:25 32.73251 -80.61430 37109 ft 427 kts 15°
2026-05-05 19:25 32.75911 -80.59857 37109 ft 427 kts 14°
2026-05-05 19:25 32.81235 -80.56724 37147 ft 427 kts 15°
2026-05-05 19:26 32.86561 -80.53569 37155 ft 428 kts 15°
2026-05-05 19:26 32.91879 -80.50398 37135 ft 427 kts 15°
2026-05-05 19:27 32.97198 -80.47228 37129 ft 427 kts 15°
2026-05-05 19:27 33.02504 -80.44062 37122 ft 427 kts 15°
2026-05-05 19:28 33.07811 -80.40879 37127 ft 427 kts 15°
2026-05-05 19:28 33.13120 -80.37703 37125 ft 427 kts 15°
2026-05-05 19:29 33.18389 -80.34554 37122 ft 427 kts 15°
2026-05-05 19:29 33.23697 -80.31379 37120 ft 427 kts 15°
2026-05-05 19:30 33.29002 -80.28187 37115 ft 427 kts 15°
2026-05-05 19:30 33.34307 -80.24991 37139 ft 427 kts 16°
2026-05-05 19:31 33.39605 -80.21801 37130 ft 426 kts 16°
2026-05-05 19:31 33.44901 -80.18601 37128 ft 426 kts 16°
2026-05-05 19:32 33.50195 -80.15393 37145 ft 426 kts 16°
2026-05-05 19:32 33.55485 -80.12201 37139 ft 425 kts 16°
2026-05-05 19:33 33.60742 -80.09015 37110 ft 421 kts 16°
2026-05-05 19:33 33.65971 -80.05841 37107 ft 421 kts 16°
2026-05-05 19:34 33.71204 -80.02665 37101 ft 422 kts 16°
2026-05-05 19:35 33.79068 -79.97888 37101 ft 422 kts 16°
2026-05-05 19:35 33.84278 -79.94716 37131 ft 422 kts 17°
2026-05-05 19:36 33.89518 -79.91514 37118 ft 422 kts 17°
2026-05-05 19:36 33.94761 -79.88306 37114 ft 422 kts 17°
2026-05-05 19:37 33.99999 -79.85100 37115 ft 422 kts 17°
2026-05-05 19:37 34.05237 -79.81891 37117 ft 422 kts 17°
2026-05-05 19:38 34.10477 -79.78674 37131 ft 423 kts 17°
2026-05-05 19:38 34.15715 -79.75457 37124 ft 422 kts 17°
2026-05-05 19:39 34.20947 -79.72231 37105 ft 422 kts 17°
2026-05-05 19:39 34.26191 -79.68999 37117 ft 422 kts 17°
2026-05-05 19:40 34.31428 -79.65767 37111 ft 423 kts 17°
2026-05-05 19:40 34.36665 -79.62534 37098 ft 423 kts 17°
2026-05-05 19:41 34.41906 -79.59286 37092 ft 423 kts 17°
2026-05-05 19:41 34.47149 -79.56039 37094 ft 423 kts 17°
2026-05-05 19:42 34.52392 -79.52785 37096 ft 424 kts 18°
2026-05-05 19:42 34.57631 -79.49482 37122 ft 425 kts 19°
2026-05-05 19:43 34.62818 -79.45994 37115 ft 427 kts 20°
2026-05-05 19:43 34.67987 -79.42455 37136 ft 425 kts 18°
2026-05-05 19:43 34.70670 -79.41060 37133 ft 413 kts
2026-05-05 19:44 34.73425 -79.40275 37129 ft 404 kts
2026-05-05 19:44 34.78943 -79.39136 37147 ft 405 kts
2026-05-05 19:45 34.84502 -79.37963 37134 ft 405 kts
2026-05-05 19:45 34.90060 -79.36778 37124 ft 405 kts
2026-05-05 19:46 34.95618 -79.35593 37069 ft 405 kts
2026-05-05 19:46 35.01173 -79.34407 37065 ft 405 kts
2026-05-05 19:47 35.05798 -79.33414 37087 ft 406 kts
2026-05-05 19:47 35.11356 -79.32216 37078 ft 405 kts
2026-05-05 19:48 35.16913 -79.31026 37116 ft 405 kts
2026-05-05 19:48 35.22473 -79.29825 37112 ft 405 kts
2026-05-05 19:49 35.28029 -79.28628 37139 ft 405 kts
2026-05-05 19:49 35.33589 -79.27431 37118 ft 405 kts
2026-05-05 19:50 35.39148 -79.26239 37106 ft 405 kts
2026-05-05 19:50 35.44704 -79.25041 37091 ft 405 kts
2026-05-05 19:51 35.50259 -79.23838 37093 ft 405 kts
2026-05-05 19:51 35.55811 -79.22631 37091 ft 405 kts
2026-05-05 19:52 35.61360 -79.21425 37087 ft 405 kts
2026-05-05 19:52 35.66878 -79.20227 37086 ft 405 kts
2026-05-05 19:53 35.72418 -79.18905 37081 ft 411 kts
2026-05-05 19:53 35.75104 -79.17561 37079 ft 423 kts 20°
2026-05-05 19:53 35.77586 -79.15523 37104 ft 437 kts 30°
2026-05-05 19:54 35.82259 -79.10705 37089 ft 438 kts 30°
2026-05-05 19:54 35.86956 -79.05911 37082 ft 438 kts 30°
2026-05-05 19:55 35.91656 -79.01120 37090 ft 438 kts 31°
2026-05-05 19:55 35.96362 -78.96310 37085 ft 439 kts 31°
2026-05-05 19:56 36.01054 -78.91490 37105 ft 439 kts 31°
2026-05-05 19:56 36.05744 -78.86661 37083 ft 439 kts 31°
2026-05-05 19:57 36.10442 -78.81832 37066 ft 439 kts 31°
2026-05-05 19:57 36.15118 -78.77022 37063 ft 440 kts 31°
2026-05-05 19:58 36.19814 -78.72170 37049 ft 440 kts 31°
2026-05-05 19:58 36.24510 -78.67308 37077 ft 440 kts 31°
2026-05-05 19:59 36.29211 -78.62448 37071 ft 440 kts 31°
2026-05-05 19:59 36.33913 -78.57577 37064 ft 440 kts 31°
2026-05-05 20:00 36.38603 -78.52690 37009 ft 440 kts 31°
2026-05-05 20:00 36.43594 -78.48557 37072 ft 422 kts 15°
2026-05-05 20:01 36.48972 -78.45718 37066 ft 421 kts 14°
2026-05-05 20:01 36.54365 -78.42849 37048 ft 422 kts 15°
2026-05-05 20:02 36.59757 -78.39955 37029 ft 422 kts 15°
2026-05-05 20:02 36.65149 -78.37067 37022 ft 422 kts 15°
2026-05-05 20:03 36.70508 -78.34200 37026 ft 423 kts 14°
2026-05-05 20:03 36.75925 -78.31301 37017 ft 423 kts 14°
2026-05-05 20:04 36.81337 -78.28401 37016 ft 424 kts 15°
2026-05-05 20:04 36.86752 -78.25489 37010 ft 424 kts 15°
2026-05-05 20:05 36.92171 -78.22568 37022 ft 424 kts 14°
2026-05-05 20:05 36.97598 -78.19629 36996 ft 425 kts 15°
2026-05-05 20:06 37.03031 -78.16693 36986 ft 425 kts 15°
2026-05-05 20:06 37.08469 -78.13755 36937 ft 425 kts 15°
2026-05-05 20:06 37.11169 -78.12288 36664 ft 421 kts 14°
2026-05-05 20:07 37.13843 -78.10828 36427 ft 418 kts 14°
2026-05-05 20:07 37.16510 -78.09379 36154 ft 417 kts 14°
2026-05-05 20:07 37.19173 -78.07935 35500 ft 418 kts 14°
2026-05-05 20:07 37.21812 -78.06504 34990 ft 416 kts 13°
2026-05-05 20:08 37.24448 -78.05063 34562 ft 412 kts 13°
2026-05-05 20:08 37.27064 -78.03634 34092 ft 409 kts 13°
2026-05-05 20:08 37.29664 -78.02216 33576 ft 406 kts 13°
2026-05-05 20:08 37.32252 -78.00807 33009 ft 405 kts 14°
2026-05-05 20:09 37.34831 -77.99403 32463 ft 404 kts 14°
2026-05-05 20:09 37.37411 -77.98003 31875 ft 404 kts 15°
2026-05-05 20:09 37.39983 -77.96605 31268 ft 400 kts 16°
2026-05-05 20:09 37.42530 -77.95214 30253 ft 397 kts 18°
2026-05-05 20:10 37.45054 -77.93834 29173 ft 394 kts 19°
2026-05-05 20:10 37.47556 -77.92459 28108 ft 390 kts 19°
2026-05-05 20:10 37.50024 -77.91103 27073 ft 386 kts 19°
2026-05-05 20:10 37.52479 -77.89755 26080 ft 383 kts 20°
2026-05-05 20:11 37.54914 -77.88406 25108 ft 381 kts 20°
2026-05-05 20:11 37.57329 -77.87046 24191 ft 380 kts 21°
2026-05-05 20:11 37.59749 -77.85669 23468 ft 384 kts 22°
2026-05-05 20:11 37.62162 -77.84287 22783 ft 378 kts 21°
2026-05-05 20:12 37.64562 -77.82910 22164 ft 378 kts 21°
2026-05-05 20:12 37.66943 -77.81552 21693 ft 376 kts 21°
2026-05-05 20:12 37.69318 -77.80226 21348 ft 370 kts 21°
2026-05-05 20:12 37.71670 -77.78927 20907 ft 368 kts 20°
2026-05-05 20:13 37.74008 -77.77641 20403 ft 364 kts 20°
2026-05-05 20:13 37.76321 -77.76365 19760 ft 361 kts 20°
2026-05-05 20:13 37.78598 -77.75106 19281 ft 355 kts 20°
2026-05-05 20:13 37.80849 -77.73858 18829 ft 351 kts 20°
2026-05-05 20:14 37.83079 -77.72617 18376 ft 348 kts 20°
2026-05-05 20:14 37.85290 -77.71386 17870 ft 346 kts 20°
2026-05-05 20:14 37.87487 -77.70162 17526 ft 345 kts 20°
2026-05-05 20:14 37.89687 -77.68935 17088 ft 344 kts 20°
2026-05-05 20:15 37.91875 -77.67717 16647 ft 343 kts 20°
2026-05-05 20:15 37.94058 -77.66502 16215 ft 343 kts 20°
2026-05-05 20:15 37.96238 -77.65287 15771 ft 343 kts 20°
2026-05-05 20:15 37.98422 -77.64071 15331 ft 343 kts 20°
2026-05-05 20:16 38.00599 -77.62854 14920 ft 342 kts 20°
2026-05-05 20:16 38.02762 -77.61637 14529 ft 341 kts 20°
2026-05-05 20:16 38.04937 -77.60411 14154 ft 339 kts 20°
2026-05-05 20:16 38.07068 -77.59170 13793 ft 337 kts 21°
2026-05-05 20:17 38.09170 -77.57862 13209 ft 335 kts 22°
2026-05-05 20:17 38.11239 -77.56532 12681 ft 333 kts 23°
2026-05-05 20:17 38.13274 -77.55210 12253 ft 333 kts 23°
2026-05-05 20:17 38.15338 -77.53870 11821 ft 333 kts 23°
2026-05-05 20:18 38.17401 -77.52536 11390 ft 333 kts 23°
2026-05-05 20:18 38.19465 -77.51207 10963 ft 333 kts 23°
2026-05-05 20:18 38.21540 -77.49877 10532 ft 334 kts 23°
2026-05-05 20:18 38.23617 -77.48575 10195 ft 329 kts 18°
2026-05-05 20:19 38.25779 -77.47684 9842 ft 322 kts
2026-05-05 20:19 38.27932 -77.46940 9563 ft 320 kts 10°
2026-05-05 20:19 38.30067 -77.46194 9318 ft 318 kts 10°
2026-05-05 20:19 38.32204 -77.45442 9071 ft 317 kts 10°
2026-05-05 20:20 38.34330 -77.44689 8839 ft 317 kts 11°
2026-05-05 20:20 38.36427 -77.43946 8598 ft 316 kts 11°
2026-05-05 20:20 38.38539 -77.43198 8355 ft 315 kts 11°
2026-05-05 20:20 38.40647 -77.42454 8116 ft 314 kts 11°
2026-05-05 20:21 38.42754 -77.41710 7868 ft 313 kts 11°
2026-05-05 20:21 38.44848 -77.40967 7626 ft 311 kts 12°
2026-05-05 20:21 38.46927 -77.40238 7367 ft 309 kts 12°
2026-05-05 20:21 38.49005 -77.39524 7142 ft 309 kts 12°
2026-05-05 20:22 38.51076 -77.38828 6897 ft 306 kts 12°
2026-05-05 20:22 38.53127 -77.38155 6838 ft 306 kts 11°
2026-05-05 20:22 38.55196 -77.37479 6672 ft 307 kts 12°
2026-05-05 20:22 38.57268 -77.36814 6215 ft 308 kts 12°
2026-05-05 20:23 38.59357 -77.36159 5731 ft 309 kts 12°
2026-05-05 20:23 38.61427 -77.35520 5522 ft 300 kts 11°
2026-05-05 20:23 38.63464 -77.34886 5521 ft 302 kts 11°
2026-05-05 20:23 38.65507 -77.34244 5521 ft 301 kts 11°
2026-05-05 20:24 38.67551 -77.33603 5245 ft 303 kts 11°
2026-05-05 20:24 38.69585 -77.32959 4924 ft 300 kts 12°
2026-05-05 20:24 38.71625 -77.32528 4605 ft 295 kts 358°
2026-05-05 20:24 38.73618 -77.32867 4273 ft 286 kts 336°
2026-05-05 20:25 38.75371 -77.33984 4034 ft 278 kts 324°
2026-05-05 20:25 38.77109 -77.35106 4020 ft 283 kts 336°
2026-05-05 20:25 38.79031 -77.35619 4022 ft 291 kts 353°
2026-05-05 20:25 38.81068 -77.35581 4027 ft 293 kts 359°
2026-05-05 20:26 38.83104 -77.35498 4008 ft 293 kts 359°
2026-05-05 20:26 38.85143 -77.35421 4011 ft 293 kts 358°
2026-05-05 20:26 38.87184 -77.35348 4007 ft 293 kts 358°
2026-05-05 20:26 38.89225 -77.35276 4017 ft 293 kts 358°
2026-05-05 20:27 38.91256 -77.35207 4008 ft 291 kts 359°
2026-05-05 20:27 38.93277 -77.35135 4006 ft 292 kts 359°
2026-05-05 20:27 38.95320 -77.35060 4009 ft 293 kts 358°
2026-05-05 20:27 38.97344 -77.34986 4007 ft 291 kts 359°
2026-05-05 20:28 38.99368 -77.34914 4006 ft 292 kts 358°
2026-05-05 20:28 39.01402 -77.34843 4007 ft 292 kts 358°
2026-05-05 20:28 39.03440 -77.34770 4010 ft 292 kts 358°
2026-05-05 20:28 39.05478 -77.34701 4007 ft 294 kts 358°
2026-05-05 20:29 39.07530 -77.34630 4017 ft 294 kts 358°
2026-05-05 20:29 39.09564 -77.34556 4035 ft 292 kts 358°
2026-05-05 20:29 39.11598 -77.34483 4047 ft 293 kts 358°
2026-05-05 20:29 39.13636 -77.34403 4036 ft 291 kts 358°
2026-05-05 20:30 39.15622 -77.34517 4034 ft 287 kts 341°
2026-05-05 20:30 39.17349 -77.35584 4031 ft 265 kts 313°
2026-05-05 20:30 39.18390 -77.37341 4034 ft 237 kts 290°
2026-05-05 20:30 39.19069 -77.39204 4015 ft 224 kts 286°
2026-05-05 20:31 39.19399 -77.41085 4015 ft 209 kts 259°
2026-05-05 20:31 39.18890 -77.42687 4030 ft 183 kts 226°
2026-05-05 20:31 39.17883 -77.43446 4018 ft 162 kts 193°
2026-05-05 20:31 39.16805 -77.43348 4008 ft 150 kts 176°
2026-05-05 20:32 39.15795 -77.43288 4013 ft 143 kts 187°
2026-05-05 20:32 39.14837 -77.43304 4031 ft 133 kts 187°
2026-05-05 20:32 39.13924 -77.43317 4023 ft 130 kts 187°
2026-05-05 20:32 39.13019 -77.43332 3806 ft 130 kts 186°
2026-05-05 20:33 39.12127 -77.43347 3539 ft 128 kts 186°
2026-05-05 20:33 39.11235 -77.43361 3333 ft 128 kts 187°
2026-05-05 20:33 39.10347 -77.43375 3152 ft 128 kts 187°
2026-05-05 20:33 39.09761 -77.43384 3043 ft 126 kts 188°
2026-05-05 20:34 39.08883 -77.43397 2868 ft 127 kts 187°
2026-05-05 20:34 39.08001 -77.43410 2714 ft 127 kts 186°
2026-05-05 20:34 39.07113 -77.43424 2535 ft 131 kts 184°
2026-05-05 20:34 39.06218 -77.43437 2369 ft 127 kts 185°
2026-05-05 20:35 39.05331 -77.43451 2192 ft 129 kts 184°
2026-05-05 20:35 39.04424 -77.43464 2019 ft 130 kts 186°
2026-05-05 20:35 39.03524 -77.43478 1851 ft 130 kts 186°
2026-05-05 20:35 39.02623 -77.43491 1697 ft 128 kts 186°
2026-05-05 20:36 39.01742 -77.43504 1517 ft 125 kts 185°
2026-05-05 20:36 39.00872 -77.43517 1359 ft 126 kts 185°